Terminal Aerodrome Forecast
Issued by NWS

Home | Current Version | Previous Version | Graphics & Text | Print | Product List | Glossary On
Versions: 1 2 3 4 5 6 7 8 9 10 11 12 13 14 15 16 17 18 19 20 21 22 23
000
FTUS45 KGGW 301700
TAFSDY
TAF
KSDY 301720Z 3018/0118 08009KT 6SM FU VCTS BKN110CB
     FM302100 07013KT P6SM VCTS BKN100CB
     FM010300 01007KT 5SM FU SCT090
      AMD LTD TO CLD VIS AND WIND=

USA.gov is the U.S. government's official web portal to all federal, state and local government web resources and services.